Location: Kumla
(59.1265°N, 15.1401°E)
Time: 23:49:18
(UTC+01:00)

Vanguard 1 Rocket - Pass Details

Date: 05 December 2023
Orbit: 653 x 4219 km, 34.3° (Epoch: 01 March)

Event Time Altitude Azimuth Distance (km) Brightness Sun altitude
Rises 05:51:20 0° 229° (SW) 7,903 11.8 -18.8°
Reaches altitude 10° 05:59:05 10° 217° (SW) 6,317 11.4 -17.9°
Maximum altitude 06:10:49 21° 178° (S) 4,270 11.0 -16.4°
Drops below altitude 10° 06:18:51 10° 134° (SE) 4,166 11.8 -15.4°
Sets 06:22:31 0° 119° (ESE) 4,678 12.8 -15.0°
